FNF258 EKCH-ESSA

Flight info

Callsign FNF258
Flight time 1h 27m
Altitude 25000
Route KEMAX DCT RASMU DCT DETSO N873 ARS T317 ELTOK
Aircraft PC12/L-SDFGRWY/S

Departure

Time 2026-05-01 08:26
Airport Copenhagen Kastrup Airport (EKCH)

Arrival

Time 2026-05-01 09:53
Airport Stockholm-Arlanda Airport (ESSA)
Time Latitude Longitude Altitude Speed Heading
2026-05-01 08:12 55.61059 12.65620 20 ft 0 kts 181°
2026-05-01 08:20 55.61052 12.65620 20 ft 5 kts 182°
2026-05-01 08:20 55.61008 12.65557 20 ft 14 kts 272°
2026-05-01 08:20 55.61013 12.65345 20 ft 20 kts 272°
2026-05-01 08:21 55.61019 12.65073 20 ft 24 kts 271°
2026-05-01 08:21 55.61028 12.64818 20 ft 12 kts 297°
2026-05-01 08:21 55.61061 12.64786 20 ft 0 kts 350°
2026-05-01 08:23 55.61064 12.64785 20 ft 4 kts 348°
2026-05-01 08:23 55.61164 12.64752 21 ft 21 kts 348°
2026-05-01 08:23 55.61329 12.64699 20 ft 26 kts 346°
2026-05-01 08:23 55.61503 12.64641 20 ft 24 kts 350°
2026-05-01 08:24 55.61634 12.64601 20 ft 15 kts 335°
2026-05-01 08:24 55.61655 12.64439 20 ft 14 kts 265°
2026-05-01 08:24 55.61649 12.64266 21 ft 14 kts 266°
2026-05-01 08:24 55.61640 12.64110 23 ft 12 kts 250°
2026-05-01 08:25 55.61607 12.64041 23 ft 9 kts 220°
2026-05-01 08:25 55.61415 12.63740 21 ft 66 kts 221°
2026-05-01 08:25 55.60949 12.63034 31 ft 110 kts 220°
2026-05-01 08:25 55.60315 12.62024 316 ft 133 kts 223°
2026-05-01 08:26 55.59572 12.60854 695 ft 157 kts 223°
2026-05-01 08:26 55.58714 12.59536 1102 ft 170 kts 224°
2026-05-01 08:26 55.57785 12.58112 1550 ft 181 kts 224°
2026-05-01 08:26 55.56809 12.56649 2004 ft 187 kts 220°
2026-05-01 08:27 55.55607 12.55651 2470 ft 195 kts 201°
2026-05-01 08:27 55.54311 12.54900 2963 ft 195 kts 201°
2026-05-01 08:27 55.53024 12.54191 3512 ft 193 kts 191°
2026-05-01 08:27 55.51727 12.54643 4056 ft 195 kts 149°
2026-05-01 08:28 55.50914 12.56482 4612 ft 193 kts 106°
2026-05-01 08:28 55.50943 12.58791 5172 ft 190 kts 70°
2026-05-01 08:28 55.51706 12.60615 5729 ft 185 kts 37°
2026-05-01 08:28 55.52749 12.61931 6282 ft 185 kts 34°
2026-05-01 08:29 55.53787 12.63276 6839 ft 186 kts 38°
2026-05-01 08:29 55.54810 12.64678 7359 ft 187 kts 38°
2026-05-01 08:29 55.55847 12.66109 7820 ft 191 kts 38°
2026-05-01 08:29 55.56907 12.67564 8291 ft 194 kts 38°
2026-05-01 08:30 55.57982 12.69042 8769 ft 196 kts 38°
2026-05-01 08:30 55.59068 12.70535 9258 ft 198 kts 38°
2026-05-01 08:30 55.60160 12.72027 9759 ft 199 kts 38°
2026-05-01 08:30 55.61257 12.73532 10274 ft 200 kts 38°
2026-05-01 08:31 55.62356 12.75044 10739 ft 200 kts 38°
2026-05-01 08:31 55.63458 12.76561 11208 ft 201 kts 38°
2026-05-01 08:31 55.64549 12.78063 11670 ft 202 kts 38°
2026-05-01 08:31 55.65658 12.79591 12151 ft 202 kts 38°
2026-05-01 08:32 55.66771 12.81126 12638 ft 203 kts 38°
2026-05-01 08:32 55.67886 12.82665 13122 ft 204 kts 38°
2026-05-01 08:32 55.69005 12.84210 13613 ft 204 kts 37°
2026-05-01 08:32 55.70129 12.85763 14112 ft 205 kts 38°
2026-05-01 08:33 55.71252 12.87318 14566 ft 205 kts 37°
2026-05-01 08:33 55.72379 12.88878 15017 ft 205 kts 37°
2026-05-01 08:33 55.73506 12.90439 15475 ft 205 kts 37°
2026-05-01 08:33 55.74632 12.92000 15935 ft 205 kts 37°
2026-05-01 08:34 55.75758 12.93564 16412 ft 205 kts 37°
2026-05-01 08:34 55.76882 12.95123 16890 ft 205 kts 37°
2026-05-01 08:34 55.78006 12.96686 17375 ft 205 kts 37°
2026-05-01 08:34 55.79130 12.98250 17873 ft 205 kts 37°
2026-05-01 08:35 55.80239 12.99793 18356 ft 205 kts 37°
2026-05-01 08:35 55.81362 13.01356 18825 ft 205 kts 37°
2026-05-01 08:35 55.82483 13.02918 19250 ft 205 kts 37°
2026-05-01 08:35 55.83604 13.04482 19677 ft 205 kts 37°
2026-05-01 08:36 55.84726 13.06046 20122 ft 205 kts 37°
2026-05-01 08:36 55.85846 13.07611 20559 ft 205 kts 37°
2026-05-01 08:36 55.86967 13.09178 21003 ft 205 kts 37°
2026-05-01 08:36 55.88089 13.10748 21444 ft 205 kts 37°
2026-05-01 08:37 55.89213 13.12320 21894 ft 205 kts 37°
2026-05-01 08:37 55.90335 13.13893 22347 ft 206 kts 37°
2026-05-01 08:37 55.91459 13.15469 22807 ft 206 kts 37°
2026-05-01 08:37 55.92587 13.17051 23271 ft 206 kts 37°
2026-05-01 08:38 55.93712 13.18631 23732 ft 206 kts 37°
2026-05-01 08:38 55.94840 13.20216 24160 ft 207 kts 37°
2026-05-01 08:38 55.95971 13.21806 24550 ft 207 kts 37°
2026-05-01 08:38 55.97103 13.23400 24945 ft 207 kts 37°
2026-05-01 08:39 55.98238 13.24997 25343 ft 208 kts 37°
2026-05-01 08:39 55.99374 13.26598 25734 ft 208 kts 37°
2026-05-01 08:39 56.00525 13.28220 25896 ft 220 kts 37°
2026-05-01 08:39 56.01849 13.30088 25416 ft 256 kts 37°
2026-05-01 08:40 56.04714 13.34150 25408 ft 268 kts 37°
2026-05-01 08:40 56.06187 13.36231 25409 ft 271 kts 37°
2026-05-01 08:40 56.07664 13.38324 25405 ft 271 kts 37°
2026-05-01 08:41 56.09140 13.40417 25410 ft 271 kts 37°
2026-05-01 08:41 56.10614 13.42510 25407 ft 269 kts 37°
2026-05-01 08:41 56.12087 13.44564 25406 ft 266 kts 33°
2026-05-01 08:41 56.13724 13.45998 25411 ft 260 kts 17°
2026-05-01 08:42 56.15449 13.46956 25403 ft 258 kts 16°
2026-05-01 08:42 56.17159 13.47916 25403 ft 257 kts 17°
2026-05-01 08:42 56.18863 13.48885 25404 ft 256 kts 17°
2026-05-01 08:42 56.20534 13.49831 25403 ft 255 kts 17°
2026-05-01 08:43 56.22245 13.50797 25400 ft 254 kts 17°
2026-05-01 08:43 56.23907 13.51735 25404 ft 253 kts 16°
2026-05-01 08:43 56.25585 13.52685 25399 ft 253 kts 17°
2026-05-01 08:43 56.27261 13.53635 25398 ft 252 kts 17°
2026-05-01 08:44 56.28931 13.54582 25395 ft 251 kts 16°
2026-05-01 08:44 56.30597 13.55527 25399 ft 251 kts 16°
2026-05-01 08:44 56.32266 13.56475 25397 ft 251 kts 16°
2026-05-01 08:44 56.33932 13.57422 25393 ft 251 kts 16°
2026-05-01 08:45 56.35593 13.58367 25392 ft 250 kts 16°
2026-05-01 08:45 56.37253 13.59313 25387 ft 250 kts 16°
2026-05-01 08:45 56.38913 13.60259 25387 ft 250 kts 16°
2026-05-01 08:45 56.40572 13.61205 25389 ft 250 kts 16°
2026-05-01 08:46 56.42231 13.62152 25392 ft 249 kts 16°
2026-05-01 08:46 56.43884 13.63097 25389 ft 249 kts 16°
2026-05-01 08:46 56.45539 13.64045 25392 ft 249 kts 16°
2026-05-01 08:46 56.47191 13.64990 25383 ft 249 kts 16°
2026-05-01 08:47 56.48843 13.65935 25384 ft 249 kts 16°
2026-05-01 08:47 56.50493 13.66883 25385 ft 249 kts 16°
2026-05-01 08:47 56.52124 13.67819 25388 ft 249 kts 16°
2026-05-01 08:47 56.53776 13.68768 25381 ft 249 kts 16°
2026-05-01 08:48 56.55431 13.69720 25383 ft 250 kts 16°
2026-05-01 08:48 56.57085 13.70672 25383 ft 249 kts 16°
2026-05-01 08:48 56.58739 13.71625 25381 ft 249 kts 16°
2026-05-01 08:48 56.60389 13.72576 25377 ft 249 kts 16°
2026-05-01 08:49 56.62042 13.73531 25380 ft 249 kts 16°
2026-05-01 08:49 56.63692 13.74484 25375 ft 249 kts 16°
2026-05-01 08:49 56.65342 13.75439 25380 ft 249 kts 16°
2026-05-01 08:49 56.66992 13.76393 25375 ft 249 kts 16°
2026-05-01 08:50 56.68644 13.77351 25378 ft 249 kts 16°
2026-05-01 08:50 56.70295 13.78308 25374 ft 249 kts 16°
2026-05-01 08:50 56.71948 13.79267 25374 ft 249 kts 16°
2026-05-01 08:50 56.73604 13.80229 25372 ft 249 kts 16°
2026-05-01 08:51 56.75256 13.81190 25372 ft 249 kts 15°
2026-05-01 08:51 56.76942 13.81794 25370 ft 247 kts
2026-05-01 08:51 56.78647 13.82166 25375 ft 247 kts
2026-05-01 08:51 56.80359 13.82563 25370 ft 248 kts
2026-05-01 08:52 56.82077 13.82972 25372 ft 249 kts
2026-05-01 08:52 56.83799 13.83375 25368 ft 250 kts
2026-05-01 08:52 56.85525 13.83776 25369 ft 251 kts
2026-05-01 08:52 56.87258 13.84179 25370 ft 251 kts
2026-05-01 08:53 56.88994 13.84585 25370 ft 251 kts
2026-05-01 08:53 56.90728 13.84990 25367 ft 251 kts
2026-05-01 08:53 56.92463 13.85396 25368 ft 251 kts
2026-05-01 08:53 56.94198 13.85802 25365 ft 251 kts
2026-05-01 08:54 56.95934 13.86208 25368 ft 251 kts
2026-05-01 08:54 56.97668 13.86615 25362 ft 252 kts
2026-05-01 08:54 56.99404 13.87022 25364 ft 251 kts
2026-05-01 08:54 57.01140 13.87430 25361 ft 252 kts
2026-05-01 08:55 57.02874 13.87837 25355 ft 251 kts
2026-05-01 08:55 57.04609 13.88245 25357 ft 251 kts
2026-05-01 08:55 57.06322 13.88649 25359 ft 251 kts
2026-05-01 08:55 57.08056 13.89058 25355 ft 251 kts
2026-05-01 08:56 57.09792 13.89467 25355 ft 252 kts
2026-05-01 08:56 57.11530 13.89878 25353 ft 252 kts
2026-05-01 08:56 57.13268 13.90289 25355 ft 252 kts
2026-05-01 08:56 57.15008 13.90700 25353 ft 252 kts
2026-05-01 08:57 57.16747 13.91112 25353 ft 252 kts
2026-05-01 08:57 57.18488 13.91525 25355 ft 252 kts
2026-05-01 08:57 57.20231 13.91938 25355 ft 252 kts
2026-05-01 08:57 57.21973 13.92352 25354 ft 252 kts
2026-05-01 08:58 57.23714 13.92766 25356 ft 252 kts
2026-05-01 08:58 57.25454 13.93180 25355 ft 252 kts
2026-05-01 08:58 57.27196 13.93595 25355 ft 252 kts
2026-05-01 08:58 57.28934 13.94009 25353 ft 252 kts
2026-05-01 08:59 57.30674 13.94425 25353 ft 252 kts
2026-05-01 08:59 57.32412 13.94840 25355 ft 252 kts
2026-05-01 08:59 57.34148 13.95255 25356 ft 252 kts
2026-05-01 08:59 57.35889 13.95671 25354 ft 252 kts
2026-05-01 09:00 57.37624 13.96087 25354 ft 252 kts
2026-05-01 09:00 57.39362 13.96504 25353 ft 252 kts
2026-05-01 09:00 57.40515 13.96780 25350 ft 252 kts
2026-05-01 09:00 57.42254 13.97198 25351 ft 252 kts
2026-05-01 09:01 57.44553 13.97751 25351 ft 252 kts
2026-05-01 09:01 57.46287 13.98168 25343 ft 252 kts
2026-05-01 09:01 57.48025 13.98587 25342 ft 251 kts
2026-05-01 09:01 57.49760 13.99006 25343 ft 251 kts
2026-05-01 09:02 57.51494 13.99424 25338 ft 251 kts
2026-05-01 09:02 57.52642 13.99702 25334 ft 251 kts
2026-05-01 09:02 57.54378 14.00121 25335 ft 251 kts
2026-05-01 09:02 57.56110 14.00540 25325 ft 251 kts
2026-05-01 09:03 57.57844 14.00960 25332 ft 251 kts
2026-05-01 09:03 57.59584 14.01382 25325 ft 252 kts
2026-05-01 09:03 57.61327 14.01805 25325 ft 253 kts
2026-05-01 09:03 57.63068 14.02228 25327 ft 252 kts
2026-05-01 09:04 57.64809 14.02652 25327 ft 252 kts
2026-05-01 09:04 57.66551 14.03076 25328 ft 252 kts
2026-05-01 09:04 57.68288 14.03499 25329 ft 252 kts
2026-05-01 09:04 57.70027 14.03923 25326 ft 252 kts
2026-05-01 09:05 57.71763 14.04347 25325 ft 252 kts
2026-05-01 09:05 57.73499 14.04771 25328 ft 252 kts
2026-05-01 09:05 57.75235 14.05195 25327 ft 252 kts
2026-05-01 09:05 57.76973 14.05621 25327 ft 252 kts
2026-05-01 09:06 57.78711 14.06047 25329 ft 252 kts
2026-05-01 09:06 57.80428 14.06468 25330 ft 252 kts
2026-05-01 09:06 57.82165 14.06895 25325 ft 252 kts
2026-05-01 09:06 57.83905 14.07322 25328 ft 252 kts
2026-05-01 09:07 57.85645 14.07750 25327 ft 252 kts
2026-05-01 09:07 57.87384 14.08178 25328 ft 252 kts
2026-05-01 09:07 57.89124 14.08607 25327 ft 252 kts
2026-05-01 09:07 57.90863 14.09036 25326 ft 252 kts
2026-05-01 09:08 57.92604 14.09466 25321 ft 252 kts
2026-05-01 09:08 57.94347 14.09897 25322 ft 252 kts
2026-05-01 09:08 57.96089 14.10328 25319 ft 252 kts
2026-05-01 09:08 57.97832 14.10760 25317 ft 253 kts
2026-05-01 09:09 57.99574 14.11192 25316 ft 253 kts
2026-05-01 09:09 58.01316 14.11624 25314 ft 252 kts
2026-05-01 09:09 58.03057 14.12057 25313 ft 252 kts
2026-05-01 09:09 58.04797 14.12490 25313 ft 252 kts
2026-05-01 09:10 58.06540 14.12923 25307 ft 252 kts
2026-05-01 09:10 58.08281 14.13357 25305 ft 252 kts
2026-05-01 09:10 58.10021 14.13791 25305 ft 252 kts
2026-05-01 09:10 58.11762 14.14226 25300 ft 252 kts
2026-05-01 09:11 58.13502 14.14661 25298 ft 252 kts
2026-05-01 09:11 58.15242 14.15096 25296 ft 252 kts
2026-05-01 09:11 58.16961 14.15526 25296 ft 252 kts
2026-05-01 09:11 58.18701 14.15962 25297 ft 252 kts
2026-05-01 09:12 58.20439 14.16399 25300 ft 252 kts
2026-05-01 09:12 58.22177 14.16835 25296 ft 252 kts
2026-05-01 09:12 58.23917 14.17273 25298 ft 252 kts
2026-05-01 09:12 58.25655 14.17710 25302 ft 252 kts
2026-05-01 09:13 58.27393 14.18148 25300 ft 252 kts
2026-05-01 09:13 58.29135 14.18587 25302 ft 252 kts
2026-05-01 09:13 58.30874 14.19025 25298 ft 252 kts
2026-05-01 09:13 58.32616 14.19466 25295 ft 253 kts
2026-05-01 09:14 58.34357 14.19906 25294 ft 253 kts
2026-05-01 09:14 58.36101 14.20347 25300 ft 253 kts
2026-05-01 09:14 58.37846 14.20790 25300 ft 253 kts
2026-05-01 09:14 58.39593 14.21233 25299 ft 253 kts
2026-05-01 09:15 58.41338 14.21676 25299 ft 253 kts
2026-05-01 09:15 58.43088 14.22121 25300 ft 253 kts
2026-05-01 09:15 58.44835 14.22565 25300 ft 253 kts
2026-05-01 09:15 58.46581 14.23009 25297 ft 253 kts
2026-05-01 09:16 58.48328 14.23455 25298 ft 253 kts
2026-05-01 09:16 58.50072 14.23900 25297 ft 253 kts
2026-05-01 09:16 58.51814 14.24345 25299 ft 253 kts
2026-05-01 09:17 58.55274 14.25230 25299 ft 253 kts
2026-05-01 09:17 58.57017 14.25677 25297 ft 252 kts
2026-05-01 09:17 58.60362 14.27812 25297 ft 265 kts 30°
2026-05-01 09:18 58.61699 14.30298 25292 ft 271 kts 44°
2026-05-01 09:18 58.64097 14.35876 25295 ft 271 kts 45°
2026-05-01 09:19 58.66507 14.41438 25292 ft 272 kts 45°
2026-05-01 09:19 58.67715 14.44234 25295 ft 272 kts 45°
2026-05-01 09:19 58.68918 14.47027 25294 ft 272 kts 45°
2026-05-01 09:20 58.71330 14.52627 25296 ft 272 kts 45°
2026-05-01 09:20 58.73738 14.58235 25293 ft 272 kts 45°
2026-05-01 09:21 58.76146 14.63853 25290 ft 272 kts 45°
2026-05-01 09:21 58.77349 14.66666 25288 ft 272 kts 45°
2026-05-01 09:21 58.79738 14.72262 25285 ft 272 kts 45°
2026-05-01 09:22 58.82141 14.77904 25279 ft 272 kts 45°
2026-05-01 09:22 58.84545 14.83562 25273 ft 272 kts 45°
2026-05-01 09:23 58.85744 14.86389 25276 ft 273 kts 45°
2026-05-01 09:23 58.88147 14.92065 25275 ft 273 kts 45°
2026-05-01 09:24 58.90550 14.97755 25264 ft 273 kts 45°
2026-05-01 09:24 58.91750 15.00601 25262 ft 273 kts 45°
2026-05-01 09:24 58.94152 15.06309 25263 ft 273 kts 45°
2026-05-01 09:25 58.96552 15.12027 25260 ft 273 kts 45°
2026-05-01 09:25 58.98949 15.17751 25251 ft 273 kts 45°
2026-05-01 09:26 59.00148 15.20617 25253 ft 274 kts 45°
2026-05-01 09:26 59.02543 15.26358 25253 ft 273 kts 45°
2026-05-01 09:26 59.03721 15.29187 25248 ft 273 kts 45°
2026-05-01 09:27 59.06109 15.34932 25249 ft 273 kts 45°
2026-05-01 09:27 59.07301 15.37805 25247 ft 273 kts 45°
2026-05-01 09:27 59.08494 15.40683 25248 ft 273 kts 45°
2026-05-01 09:28 59.09684 15.43558 25243 ft 273 kts 45°
2026-05-01 09:28 59.10875 15.46439 25244 ft 273 kts 45°
2026-05-01 09:28 59.12067 15.49326 25247 ft 273 kts 45°
2026-05-01 09:28 59.13257 15.52212 25247 ft 273 kts 45°
2026-05-01 09:29 59.15639 15.57998 25244 ft 273 kts 45°
2026-05-01 09:29 59.16828 15.60891 25242 ft 273 kts 45°
2026-05-01 09:30 59.19202 15.66682 25239 ft 273 kts 45°
2026-05-01 09:30 59.20388 15.69578 25236 ft 273 kts 45°
2026-05-01 09:30 59.22757 15.75382 25238 ft 273 kts 45°
2026-05-01 09:31 59.23939 15.78282 25236 ft 273 kts 45°
2026-05-01 09:31 59.25122 15.81188 25232 ft 273 kts 45°
2026-05-01 09:31 59.27484 15.87003 25232 ft 273 kts 45°
2026-05-01 09:32 59.28649 15.89876 25231 ft 273 kts 45°
2026-05-01 09:32 59.31007 15.95703 25229 ft 273 kts 45°
2026-05-01 09:32 59.32187 15.98624 25231 ft 273 kts 45°
2026-05-01 09:33 59.33382 16.01586 25227 ft 274 kts 45°
2026-05-01 09:33 59.34546 16.04473 25226 ft 274 kts 45°
2026-05-01 09:33 59.36904 16.10336 25226 ft 274 kts 45°
2026-05-01 09:34 59.38082 16.13271 25224 ft 274 kts 45°
2026-05-01 09:34 59.39261 16.16213 25223 ft 274 kts 45°
2026-05-01 09:34 59.41615 16.22094 25217 ft 274 kts 45°
2026-05-01 09:35 59.42791 16.25038 25221 ft 274 kts 45°
2026-05-01 09:35 59.45143 16.30934 25217 ft 274 kts 45°
2026-05-01 09:35 59.46318 16.33885 25217 ft 274 kts 45°
2026-05-01 09:36 59.47490 16.36834 25221 ft 274 kts 45°
2026-05-01 09:36 59.48669 16.39799 25082 ft 279 kts 45°
2026-05-01 09:36 59.49881 16.42847 24850 ft 286 kts 45°
2026-05-01 09:36 59.51115 16.45967 24610 ft 292 kts 45°
2026-05-01 09:37 59.52366 16.49139 24284 ft 292 kts 45°
2026-05-01 09:37 59.54831 16.55398 23552 ft 287 kts 45°
2026-05-01 09:37 59.56051 16.58489 23139 ft 285 kts 45°
2026-05-01 09:38 59.58020 16.65301 22224 ft 294 kts 64°
2026-05-01 09:38 59.58667 16.69148 21700 ft 296 kts 66°
2026-05-01 09:38 59.59304 16.72982 21181 ft 293 kts 65°
2026-05-01 09:39 59.60690 16.80482 20193 ft 289 kts 64°
2026-05-01 09:39 59.61359 16.84173 19708 ft 289 kts 64°
2026-05-01 09:39 59.62025 16.87909 19232 ft 288 kts 64°
2026-05-01 09:40 59.62700 16.91675 18746 ft 286 kts 64°
2026-05-01 09:40 59.64020 16.99021 17723 ft 284 kts 64°
2026-05-01 09:40 59.64677 17.02696 17201 ft 283 kts 65°
2026-05-01 09:41 59.65331 17.06362 16684 ft 282 kts 65°
2026-05-01 09:41 59.66628 17.13657 15685 ft 280 kts 65°
2026-05-01 09:41 59.67299 17.17246 15189 ft 276 kts 61°
2026-05-01 09:42 59.68108 17.20658 14706 ft 272 kts 58°
2026-05-01 09:42 59.68954 17.23995 14231 ft 270 kts 57°
2026-05-01 09:42 59.70366 17.29477 13384 ft 267 kts 57°
2026-05-01 09:43 59.71764 17.34832 12537 ft 266 kts 57°
2026-05-01 09:43 59.72620 17.38066 12033 ft 265 kts 57°
2026-05-01 09:43 59.73482 17.41294 11534 ft 264 kts 57°
2026-05-01 09:44 59.75218 17.47689 10562 ft 262 kts 57°
2026-05-01 09:44 59.76090 17.50858 10089 ft 262 kts 57°
2026-05-01 09:44 59.76966 17.54020 9569 ft 261 kts 57°
2026-05-01 09:45 59.77840 17.57170 9051 ft 260 kts 57°
2026-05-01 09:45 59.79563 17.63403 8050 ft 258 kts 57°
2026-05-01 09:45 59.80425 17.66521 7558 ft 257 kts 57°
2026-05-01 09:46 59.81283 17.69622 7073 ft 255 kts 57°
2026-05-01 09:46 59.82134 17.72704 6589 ft 253 kts 57°
2026-05-01 09:46 59.82974 17.75759 6081 ft 251 kts 57°
2026-05-01 09:46 59.83791 17.78799 5581 ft 248 kts 63°
2026-05-01 09:47 59.84082 17.82173 5065 ft 250 kts 90°
2026-05-01 09:47 59.83911 17.85599 4572 ft 250 kts 97°
2026-05-01 09:47 59.83678 17.89025 4069 ft 250 kts 97°
2026-05-01 09:47 59.83443 17.92385 3590 ft 239 kts 98°
2026-05-01 09:48 59.83222 17.95588 3086 ft 228 kts 97°
2026-05-01 09:48 59.82713 17.98477 2554 ft 220 kts 126°
2026-05-01 09:48 59.81607 18.00152 2502 ft 184 kts 161°
2026-05-01 09:48 59.80447 18.00798 2495 ft 163 kts 174°
2026-05-01 09:49 59.79318 18.01004 2534 ft 164 kts 190°
2026-05-01 09:49 59.78164 18.00695 2507 ft 168 kts 193°
2026-05-01 09:49 59.76994 18.00312 2508 ft 175 kts 194°
2026-05-01 09:49 59.75744 17.99833 2292 ft 194 kts 195°
2026-05-01 09:50 59.74351 17.99336 2011 ft 208 kts 193°
2026-05-01 09:50 59.72917 17.98812 1737 ft 210 kts 194°
2026-05-01 09:50 59.71558 17.98313 1453 ft 184 kts 193°
2026-05-01 09:50 59.70420 17.97908 1234 ft 151 kts 194°
2026-05-01 09:51 59.69435 17.97541 1039 ft 138 kts 193°
2026-05-01 09:51 59.68540 17.97219 867 ft 123 kts 194°
2026-05-01 09:51 59.67725 17.96926 717 ft 121 kts 196°
2026-05-01 09:51 59.66902 17.96624 563 ft 110 kts 193°
2026-05-01 09:52 59.66438 17.96469 449 ft 101 kts 193°
2026-05-01 09:52 59.65437 17.96092 241 ft 116 kts 195°
2026-05-01 09:52 59.64620 17.95794 107 ft 117 kts 195°
2026-05-01 09:52 59.63934 17.95545 110 ft 83 kts 192°
2026-05-01 09:53 59.63585 17.95421 115 ft 67 kts 191°
2026-05-01 09:53 59.63323 17.95173 120 ft 39 kts 220°
2026-05-01 09:53 59.63288 17.94903 121 ft 22 kts
2026-05-01 09:53 59.63478 17.94973 113 ft 33 kts 11°
2026-05-01 09:54 59.63687 17.95048 108 ft 23 kts 11°
2026-05-01 09:54 59.63863 17.95113 106 ft 27 kts 11°
2026-05-01 09:54 59.64077 17.95190 104 ft 30 kts 11°
2026-05-01 09:54 59.64213 17.95239 103 ft 10 kts 11°
2026-05-01 09:55 59.64328 17.95178 101 ft 23 kts 333°
2026-05-01 09:55 59.64491 17.95144 100 ft 25 kts 338°
2026-05-01 09:55 59.64625 17.94981 99 ft 15 kts 327°
2026-05-01 09:55 59.64597 17.94890 99 ft 16 kts 153°
2026-05-01 09:56 59.64533 17.94966 99 ft 7 kts 147°
2026-05-01 09:56 59.64521 17.94982 99 ft 0 kts 147°